• Join FlightAware (Why Join?)
  • Login
  • US Flag GB Flag 
09:51 EDT


 

Airport Tracker/Info


-or-


 

Live Flight TrackerFlight Track Log ✈ LOF3377 ✈ 07-May-2013 ✈ KCVG - KORD

Flight Track Log - Related Links

Times and Time Zones

All times are in EDT time to prevent confusion due to time zone crossing. See the LOF3377 flight status page for this flight to view local times or setup timezone preferences in your user account.

Time Position Orientation Groundspeed Altitude Reporting Facility
EDT Latitude Longitude Course Direction KTS MPH feet Rate Location/Type
16:38 39.0333 -84.6667 351° North 180 207 1,300  Level Cincinnati TRACON
16:39 39.0167 -84.7000 237° Southwest 187 215 2,800 2,040 Climbing Cincinnati TRACON
16:40 39.0500 -84.7500 311° West 260 299 4,800 2,400 Climbing Cincinnati TRACON
16:41 39.1167 -84.7833 339° North 263 303 7,700 2,160 Climbing Cincinnati TRACON
16:43 39.0657 -84.8931 351° North  Level FlightAware Approximate
16:43 39.2900 -84.8836 336° Northwest 300 345 12,300  Level Indianapolis Center
16:44 39.3769 -84.9297 338° Northwest 333 383 13,800 1,440 Climbing Indianapolis Center
16:45 39.4686 -84.9792 337° Northwest 350 403 15,300 1,560 Climbing Indianapolis Center
16:46 39.5742 -85.0533 332° Northwest 370 426 17,100 1,560 Climbing Indianapolis Center
16:47 39.6528 -85.1453 318° Northwest 383 441 18,600 1,380 Climbing Indianapolis Center
16:48 39.7311 -85.2397 317° Northwest 385 443 20,000 1,200 Climbing Indianapolis Center
16:49 39.8131 -85.3356 318° Northwest 396 456 21,200 960 Climbing Indianapolis Center
16:50 39.8975 -85.4328 319° Northwest 405 466 22,000 300 Climbing Indianapolis Center
16:51 40.0058 -85.5358 324° Northwest 405 466 21,900 -60 Descending Indianapolis Center
16:52 40.0911 -85.6317 319° Northwest 408 470 21,900  Level Indianapolis Center
16:53 40.1767 -85.7317 318° Northwest 415 478 21,900  Level Indianapolis Center
16:54 40.2608 -85.8314 318° Northwest 416 479 21,900  Level Chicago Center
16:55 40.3467 -85.9356 317° Northwest 423 487 21,900  Level Chicago Center
16:56 40.4328 -86.0408 317° Northwest 425 489 21,900  Level Chicago Center
16:57 40.5367 -86.1653 318° Northwest 425 489 21,900  Level Chicago Center
16:58 40.6233 -86.2703 317° Northwest 426 490 21,900  Level Chicago Center
16:59 40.7147 -86.3806 318° Northwest 427 491 21,900 -420 Level Chicago Center
17:00 40.8011 -86.4906 316° Northwest 431 496 21,100 -1,260 Descending Chicago Center
17:01 40.8853 -86.5942 317° Northwest 417 480 19,300 -1,800 Descending Chicago Center
17:02 40.9675 -86.6953 317° Northwest 405 466 17,400 -1,920 Descending Chicago Center
17:04 41.0608 -86.8108 317° Northwest 392 451 15,400 -1,860 Descending Chicago Center
17:05 41.1342 -86.9039 316° Northwest 371 427 13,600 -1,800 Descending Chicago Center
17:06 41.2064 -86.9944 317° Northwest 361 415 11,700 -1,260 Descending Chicago Center
17:07 41.2778 -87.0853 316° Northwest 359 413 11,000 -360 Descending Chicago Center
17:08 41.3475 -87.1711 317° Northwest 348 400 11,000  Level Chicago Center
17:08 41.4167 -87.2500 319° Northwest 364 419 11,000 -120 Level Chicago TRACON
17:09 41.4833 -87.3500 312° West 369 425 10,800 -480 Descending Chicago TRACON
17:10 41.5667 -87.4333 323° Northwest 349 402 10,100 -600 Descending Chicago TRACON
17:11 41.5847 -87.4483 328° Northwest 349 402 10,000 -120 Descending Chicago Center
17:12 41.6578 -87.5292 320° Northwest 345 397 10,000 -60 Level Chicago Center
17:13 41.7278 -87.6078 320° Northwest 332 382 9,900 -1,320 Descending Chicago Center
17:14 41.7833 -87.6667 322° Northwest 262 302 7,800 -1,740 Descending Chicago TRACON
17:15 41.8167 -87.7333 304° West 275 316 7,000 -420 Descending Chicago TRACON
17:15 41.8167 -87.8333 270° West 284 327 7,000 -480 Level Chicago TRACON
17:17 41.8000 -87.9333 257° West 234 269 6,100 -960 Descending Chicago TRACON
17:17 41.7864 -87.9500 222° Southwest 254 292 5,600 -1,500 Descending Chicago Center
17:18 41.8164 -88.0369 295° West 229 264 4,000 -1,200 Descending Chicago Center
17:19 41.8550 -88.0172 21° North 195 224 3,200 -900 Descending Chicago Center
17:20 41.8833 -87.9833 42° Northeast 180 207 2,600 -1,020 Descending Chicago TRACON